| time (UTC) | temp F | wind direction | speed MPH | gust MPH | rain 1hr in | rain 24hr in | rain mn in | humidity % | barometer mb |
| 20260506080707 | 62 | 291 | 2.0 | 2.0 | 0.00 | 0.00 | 0.00 | 84 | 1014.0 |
| 20260506072159 | 63 | 316 | 1.0 | 3.0 | 0.00 | 0.00 | 0.00 | 84 | 1013.9 |
| 20260506070657 | 63 | 10 | 0.0 | 0.0 | 0.00 | 0.00 | 0.00 | 83 | 1014.2 |
| 20260506062148 | 67 | 309 | 2.0 | 3.0 | 0.00 | 0.00 | 0.00 | 75 | 1014.2 |
| 20260506060646 | 69 | 299 | 2.0 | 2.0 | 0.00 | 0.00 | 0.00 | 72 | 1014.6 |
| 20260506050637 | 71 | 88 | 2.0 | 5.0 | 0.00 | 0.00 | 0.00 | 66 | 1014.9 |
| 20260506045132 | 71 | 91 | 5.0 | 6.0 | 0.00 | 0.00 | 0.00 | 67 | 1015.2 |
| 20260506043630 | 72 | 302 | 1.0 | 1.0 | 0.00 | 0.00 | 0.00 | 64 | 1015.3 |
| 20260506042130 | 72 | 286 | 1.0 | 1.0 | 0.00 | 0.00 | 0.00 | 63 | 1015.3 |
| 20260506040629 | 73 | 286 | 2.0 | 2.0 | 0.00 | 0.00 | 0.00 | 61 | 1015.5 |
| 20260506035125 | 74 | 296 | 1.0 | 1.0 | 0.00 | 0.00 | 0.00 | 57 | 1015.9 |
| 20260506033622 | 75 | 296 | 0.0 | 1.0 | 0.00 | 0.00 | 0.00 | 57 | 1016.1 |
| 20260506032119 | 74 | 148 | 3.0 | 3.0 | 0.00 | 0.00 | 0.00 | 57 | 1016.4 |
| 20260506030618 | 73 | 26 | 2.0 | 5.0 | 0.00 | 0.00 | 0.00 | 61 | 1016.6 |
| 20260506025113 | 74 | 294 | 1.0 | 1.0 | 0.00 | 0.00 | 0.00 | 58 | 1016.8 |
| 20260506023608 | 72 | 351 | 2.0 | 5.0 | 0.00 | 0.00 | 0.00 | 60 | 1017.2 |
| 20260506022107 | 74 | 290 | 1.0 | 1.0 | 0.00 | 0.00 | 0.00 | 55 | 1017.2 |
| 20260506020604 | 72 | 202 | 3.0 | 3.0 | 0.00 | 0.00 | 0.00 | 56 | 1017.7 |
| 20260506015101 | 73 | 305 | 1.0 | 1.0 | 0.00 | 0.00 | 0.00 | 56 | 1017.9 |
| 20260506013559 | 73 | 286 | 0.0 | 0.0 | 0.00 | 0.00 | 0.00 | 59 | 1018.3 |
| 20260506012054 | 72 | 333 | 1.0 | 2.0 | 0.00 | 0.00 | 0.00 | 60 | 1018.5 |
| 20260506010553 | 72 | 323 | 2.0 | 3.0 | 0.00 | 0.00 | 0.00 | 61 | 1019.1 |
| 20260506005048 | 71 | 303 | 0.0 | 0.0 | 0.00 | 0.00 | 0.00 | 60 | 1019.1 |
| 20260506003545 | 70 | 303 | 0.0 | 1.0 | 0.00 | 0.00 | 0.00 | 62 | 1019.2 |
| 20260506002045 | 70 | 295 | 1.0 | 1.0 | 0.00 | 0.00 | 0.00 | 62 | 1019.3 |
| 20260506000541 | 68 | 276 | 0.0 | 1.0 | 0.00 | 0.00 | 0.00 | 64 | 1019.5 |
| 20260505235039 | 67 | 263 | 1.0 | 1.0 | 0.00 | 0.00 | 0.00 | 65 | 1019.6 |
| 20260505233536 | 65 | 215 | 2.0 | 3.0 | 0.00 | 0.00 | 0.00 | 67 | 1019.6 |
| 20260505232034 | 63 | 260 | 2.0 | 2.0 | 0.00 | 0.00 | 0.00 | 71 | 1019.5 |
| 20260505230533 | 62 | 190 | 3.0 | 3.0 | 0.00 | 0.00 | 0.00 | 72 | 1019.8 |
| 20260505225033 | 62 | 285 | 0.0 | 0.0 | 0.00 | 0.00 | 0.00 | 73 | 1019.9 |
| 20260505223530 | 60 | 204 | 2.0 | 2.0 | 0.00 | 0.00 | 0.00 | 76 | 1019.9 |
| 20260505222025 | 59 | 282 | 1.0 | 2.0 | 0.00 | 0.00 | 0.00 | 77 | 1019.7 |
| 20260505220522 | 58 | 238 | 2.0 | 2.0 | 0.00 | 0.00 | 0.00 | 77 | 1019.7 |
| 20260505215020 | 57 | 207 | 2.0 | 2.0 | 0.00 | 0.00 | 0.00 | 79 | 1019.4 |
| 20260505213519 | 55 | 276 | 1.0 | 1.0 | 0.00 | 0.00 | 0.00 | 81 | 1019.6 |
| 20260505212014 | 54 | 198 | 3.0 | 3.0 | 0.00 | 0.00 | 0.00 | 82 | 1019.5 |
| 20260505210510 | 53 | 204 | 2.0 | 2.0 | 0.00 | 0.00 | 0.00 | 84 | 1019.2 |
| 20260505205008 | 52 | 196 | 2.0 | 3.0 | 0.00 | 0.00 | 0.00 | 85 | 1019.3 |
| 20260505203505 | 52 | 189 | 3.0 | 3.0 | 0.00 | 0.00 | 0.00 | 84 | 1019.3 |
| 20260505202000 | 53 | 206 | 2.0 | 2.0 | 0.00 | 0.00 | 0.00 | 84 | 1019.4 |
| 20260505200458 | 52 | 223 | 1.0 | 2.0 | 0.00 | 0.00 | 0.00 | 84 | 1019.2 |
| 20260505194954 | 53 | 216 | 1.0 | 2.0 | 0.00 | 0.00 | 0.00 | 84 | 1019.3 |
| 20260505193449 | 53 | 194 | 3.0 | 3.0 | 0.00 | 0.00 | 0.00 | 83 | 1019.4 |
| 20260505191948 | 54 | 194 | 1.0 | 2.0 | 0.00 | 0.00 | 0.00 | 82 | 1019.3 |
| 20260505190444 | 53 | 203 | 5.0 | 7.0 | 0.00 | 0.00 | 0.00 | 82 | 1019.5 |
| 20260505184939 | 53 | 194 | 3.0 | 3.0 | 0.00 | 0.00 | 0.00 | 83 | 1019.2 |
| 20260505183436 | 54 | 226 | 1.0 | 2.0 | 0.00 | 0.00 | 0.00 | 83 | 1019.1 |
| 20260505181931 | 54 | 188 | 2.0 | 3.0 | 0.00 | 0.00 | 0.00 | 83 | 1019.2 |
| 20260505180428 | 54 | 219 | 3.0 | 3.0 | 0.00 | 0.00 | 0.00 | 82 | 1019.1 |
| 20260505174923 | 54 | 198 | 2.0 | 2.0 | 0.00 | 0.00 | 0.00 | 81 | 1019.0 |
| 20260505173420 | 54 | 201 | 2.0 | 2.0 | 0.00 | 0.00 | 0.00 | 81 | 1019.2 |
| 20260505171914 | 54 | 203 | 3.0 | 3.0 | 0.00 | 0.00 | 0.00 | 82 | 1019.2 |
| 20260505170411 | 55 | 185 | 3.0 | 3.0 | 0.00 | 0.00 | 0.00 | 81 | 1019.4 |
| 20260505164909 | 55 | 207 | 2.0 | 3.0 | 0.00 | 0.00 | 0.00 | 80 | 1019.3 |
| 20260505163409 | 55 | 225 | 2.0 | 3.0 | 0.00 | 0.00 | 0.00 | 80 | 1019.4 |
| 20260505161906 | 55 | 209 | 2.0 | 2.0 | 0.00 | 0.00 | 0.00 | 80 | 1019.1 |
| 20260505160404 | 55 | 208 | 1.0 | 2.0 | 0.00 | 0.00 | 0.00 | 78 | 1019.4 |
| 20260505153354 | 56 | 265 | 3.0 | 3.0 | 0.00 | 0.00 | 0.00 | 78 | 1019.7 |
| 20260505151849 | 57 | 234 | 1.0 | 2.0 | 0.00 | 0.00 | 0.00 | 76 | 1019.8 |
| 20260505150346 | 57 | 288 | 2.0 | 2.0 | 0.00 | 0.00 | 0.00 | 76 | 1020.0 |
| 20260505140334 | 57 | 210 | 3.0 | 5.0 | 0.00 | 0.00 | 0.00 | 77 | 1020.2 |
| 20260505124817 | 57 | 221 | 3.0 | 3.0 | 0.00 | 0.00 | 0.00 | 77 | 1020.3 |
| 20260505123312 | 57 | 222 | 1.0 | 2.0 | 0.00 | 0.00 | 0.00 | 76 | 1020.5 |
| 20260505121808 | 57 | 219 | 1.0 | 2.0 | 0.00 | 0.00 | 0.00 | 76 | 1020.4 |
| 20260505120303 | 57 | 224 | 1.0 | 1.0 | 0.00 | 0.00 | 0.00 | 77 | 1020.6 |
| 20260505114802 | 57 | 267 | 0.0 | 0.0 | 0.00 | 0.00 | 0.00 | 77 | 1020.6 |
| 20260505113258 | 57 | 255 | 1.0 | 2.0 | 0.00 | 0.00 | 0.00 | 78 | 1020.4 |
| 20260505111758 | 57 | 282 | 0.0 | 0.0 | 0.00 | 0.00 | 0.00 | 79 | 1020.4 |
| 20260505110254 | 56 | 279 | 0.0 | 0.0 | 0.00 | 0.00 | 0.00 | 81 | 1020.4 |
| 20260505101751 | 55 | 212 | 2.0 | 2.0 | 0.00 | 0.00 | 0.00 | 83 | 1019.7 |
| 20260505100251 | 55 | 262 | 1.0 | 1.0 | 0.00 | 0.00 | 0.00 | 85 | 1019.6 |
| 20260505094752 | 55 | 259 | 0.0 | 0.0 | 0.00 | 0.00 | 0.00 | 85 | 1019.7 |
| 20260505093248 | 56 | 196 | 1.0 | 2.0 | 0.00 | 0.00 | 0.00 | 85 | 1019.5 |
| 20260505091746 | 57 | 210 | 2.0 | 3.0 | 0.00 | 0.00 | 0.00 | 84 | 1019.3 |
| 20260505090246 | 56 | 261 | 0.0 | 1.0 | 0.00 | 0.00 | 0.00 | 85 | 1019.2 |
| 20260505084743 | 57 | 237 | 0.0 | 0.0 | 0.00 | 0.00 | 0.00 | 85 | 1018.9 |
| 20260505083242 | 57 | 256 | 0.0 | 0.0 | 0.00 | 0.00 | 0.00 | 85 | 1018.6 |
| 20260505081742 | 57 | 233 | 0.0 | 0.0 | 0.00 | 0.00 | 0.00 | 84 | 1018.2 |